RH
64 65 67 69 74 78 83 81 89 78 73 70 64 63 65 73 64 60 64 64 65 70 73 68 66 68 67 60 59 53 52 48 38 32 31 30 30 31 30 31 31 31 31
55 58 62 69 74 76 76 71 70 75 76 70 72 76 71 60 63 68 75 80 73 71 66 68 71 63 58 46 42 41 40 35 36 32 31 34 33 32 32 31 32 34 35
65 73 74 73 75 69 65 66 72 75 73 77 79 71 71 76 77 80 80 71 71 71 71 67 61 59 41 37 40 40 34 35 37 37 34 34 32 35 37 40 41 40 42
71 77 78 74 69 66 68 70 72 74 77 78 76 77 75 79 85 83 78 73 72 68 60 54 52 40 39 43 40 36 36 38 39 36 31 30 36 41 45 47 44 45 43
77 75 71 69 69 70 68 70 74 81 84 84 79 82 83 81 81 80 78 78 69 60 56 49 45 45 47 42 38 37 39 40 38 33 31 32 38 43 50 52 52 47 56
68 66 68 71 70 68 72 76 79 83 87 86 90 82 82 78 78 79 72 63 62 66 60 49 47 50 48 41 37 41 43 40 36 33 34 36 40 48 52 53 53 63 66
64 68 71 71 72 76 77 79 83 86 92 89 83 80 73 71 76 72 63 62 59 66 65 53 51 53 48 41 39 45 42 41 38 38 37 39 41 47 52 59 71 72 70
69 72 72 77 79 78 77 80 87 96 90 85 78 74 71 66 60 58 56 52 51 50 51 51 52 49 43 39 43 41 39 39 39 41 41 41 43 47 57 72 78 75 70
70 74 77 75 74 82 84 88 93 94 86 76 72 69 62 54 49 50 45 49 51 54 53 53 48 40 39 42 41 38 36 36 38 41 42 44 44 50 65 78 81 76 69
78 79 77 88 92 89 98 95 87 85 78 71 69 57 47 40 38 40 45 50 48 50 52 48 46 40 43 45 40 38 35 36 38 39 39 42 46 50 61 80 84 80 76
80 87 84 94 89 86 85 83 76 72 66 65 51 41 35 34 37 41 44 47 46 48 50 47 47 46 48 45 40 36 36 37 39 38 35 37 42 50 59 80 86 84 80
82 86 88 83 81 86 81 76 68 59 50 46 39 33 33 36 41 44 44 45 49 52 52 52 52 52 51 46 40 37 37 39 38 38 34 33 37 45 54 67 86 85 82
81 78 74 73 70 68 59 49 48 49 40 35 32 35 37 41 45 46 49 50 52 57 63 63 62 54 53 49 44 40 39 39 40 41 38 33 33 39 47 57 76 89 85
66 61 54 51 47 45 45 45 33 27 32 34 37 40 42 45 45 49 52 55 58 61 67 71 72 62 55 52 50 43 44 42 42 45 45 40 33 35 41 50 68 86 86
45 42 40 40 37 32 28 28 28 30 35 37 43 51 51 46 45 51 55 57 62 66 71 76 82 70 62 54 54 49 48 48 47 48 50 49 39 31 39 44 59 72 84
34 31 28 27 26 27 27 27 33 37 44 50 56 59 55 54 52 52 54 59 65 71 71 76 83 79 70 60 57 56 54 50 51 52 52 53 46 34 36 42 48 66 72
24 25 26 28 29 33 36 40 44 48 59 61 63 64 65 59 58 55 57 61 65 73 72 80 85 87 77 67 63 60 57 58 58 57 57 59 54 40 38 38 44 50 77
28 30 33 36 40 44 49 52 57 59 57 55 60 67 72 74 74 64 61 67 67 72 74 82 85 90 82 74 70 68 66 66 63 65 67 68 61 50 42 39 41 47 55
36 38 40 42 45 48 52 55 56 55 54 52 56 53 63 80 80 77 75 71 68 73 79 86 89 90 89 89 80 75 74 74 76 74 72 71 69 61 47 42 38 43 49
34 35 35 36 38 39 37 34 34 36 42 51 46 42 51 58 59 79 83 75 72 69 81 85 92 94 93 97 93 85 82 84 83 83 83 78 72 69 58 48 40 39 45
29 29 30 32 31 30 31 30 28 27 25 23 23 36 54 51 71 90 80 79 85 85 81 79 89 96 96 98 98 95 91 91 91 93 97 97 83 75 71 56 46 39 41
27 27 28 28 28 28 28 30 30 30 30 31 28 26 29 69 88 86 85 91 94 93 89 87 87 95 95 98 99 98 97 96 90 89 93 96 98 88 76 70 53 44 40
26 25 26 27 27 26 27 29 33 35 36 43 43 43 42 50 73 66 79 94 92 95 91 92 93 96 98 98 99 99 98 98 93 87 87 90 92 96 86 76 67 53 45
27 25 26 27 28 29 30 33 37 43 44 44 50 50 53 55 75 89 95 93 97 96 92 97 99 99 99 98 99 99 98 98 98 86 87 90 90 91 94 82 75 66 56
26 26 26 27 29 32 33 37 41 44 51 53 54 58 62 67 81 91 96 99 98 95 98 97 98 99 98 98 97 98 98 98 95 81 82 88 92 90 89 90 80 73 66
26 26 27 30 32 34 36 39 42 46 52 57 63 67 69 78 85 91 97 98 97 99 98 97 97 96 96 96 98 98 95 88 76 74 76 84 91 94 91 92 87 83 75